Regional Weather Roundup
Issued by NWS

Home | Current Version | Previous Version | Text Only | Print | Product List | Glossary Off
Versions: 1 2 3 4 5 6 7 8 9 10 11 12 13 14 15 16 17 18 19 20 21 22 23 24 25 26 27 28 29 30 31 32 33 34 35 36 37 38 39 40 41 42 43 44 45 46 47 48 49 50

164
ASUS43 KLMK 072110
RWRKY
KENTUCKY REGIONAL WEATHER ROUNDUP
NATIONAL WEATHER SERVICE LOUISVILLE KY
400 PM EST SUN FEB 07 2016

NOTE "FAIR" INDICATES FEW OR NO CLOUDS BELOW 12,000 FEET
WITH NO SIGNIFICANT WEATHER AND/OR OBSTRUCTIONS TO VISIBILITY.

KYZ001>023-026-027-061>063-070>075-072200-
WESTERN AND SOUTH CENTRAL KENTUCKY

CITY           SKY/WX    TMP DP  RH WIND       PRES   REMARKS
PADUCAH        SUNNY     55  26  32 SW20G29   29.93F
HENDERSON      SUNNY     54  25  32 S16G26    29.91F
OWENSBORO      MOSUNNY   56  29  35 SW16G23   29.92F
HOPKINSVILLE   MOSUNNY   55  22  27 SW15      29.96F
BOWLING GREEN  SUNNY     56  20  24 SW15G25   29.98F
GLASGOW        SUNNY     54  21  27 SW12G17   29.97F
$$

KYZ024-025-028>034-038-045-046-053-072200-
NORTH CENTRAL KENTUCKY

CITY           SKY/WX    TMP DP  RH WIND       PRES   REMARKS
LOUISVILLE/SDF PTSUNNY   56  19  23 SW16      29.92F
LOUISVILLE/LOU SUNNY     54  20  26 SW10G21   29.93F
FORT KNOX      SUNNY     54  22  28 SW16G23   29.92S
$$

KYZ035>037-039>044-047>052-055>060-089>105-072200-
NORTHEAST KENTUCKY

CITY           SKY/WX    TMP DP  RH WIND       PRES   REMARKS
LEXINGTON      SUNNY     52  22  30 SW15      29.94F
COVINGTON      CLOUDY    50  21  32 S16G23    29.90F
FRANKFORT      SUNNY     52  19  27 SW12G22   29.93F
$$

KYZ054-064>069-076>088-106>120-072200-
SOUTHEAST KENTUCKY

CITY           SKY/WX    TMP DP  RH WIND       PRES   REMARKS
JACKSON        SUNNY     53  21  28 VRB3      29.96F
LONDON         SUNNY     52  19  27 S6        29.97F
SOMERSET       SUNNY     50  21  32 W10       29.99F
MIDDLESBORO    SUNNY     53  20  27 W7        29.97F
MONTICELLO     CLEAR     52  23  32 W14G20    30.00F
$$





USA.gov is the U.S. government's official web portal to all federal, state and local government web resources and services.